Location: Mahannah Oil Field
(37.4664°N, 96.6003°W)
Time: 04:22:45
(UTC+00:00)

deb Explorer IX - Pass Details

Date: 25 June 2021
Orbit: 544 x 1093 km, 38.8° (Epoch: 02 August)

Event Time Altitude Azimuth Distance (km) Brightness Sun altitude
Exits shadow 10:04:55 15° 229° (SW) 1,785 ? -10.8°
Maximum altitude 10:08:42 49° 158° (SSE) 799 ? -10.2°
Drops below altitude 10° 10:12:51 10° 83° (E) 1,879 ? -9.6°
Sets 10:15:03 0° 78° (ENE) 2,738 ? -9.3°
